Location: Dodge City Community College Clyde Tombaugh Astronomy Center
(37.7756°N, 100.0412°W)
Time: 21:07:49
(UTC+00:00)

N. Korean satellite - Pass Details

Date: 13 December 2022
Orbit: 407 x 442 km, 97.3° (Epoch: 04 February)

Event Time Altitude Azimuth Distance (km) Brightness Sun altitude
Rises 00:18:12 0° 214° (SSW) 2,465 11.1 -11.0°
Reaches altitude 10° 00:21:41 10° 252° (WSW) 1,610 10.8 -11.6°
Maximum altitude 00:22:37 11° 268° (W) 1,561 10.4 -11.8°
Drops below altitude 10° 00:23:33 10° 284° (WNW) 1,617 10.1 -12.0°
Sets 00:27:06 0° 323° (NW) 2,506 10.4 -12.6°
